QPF
0.01 0.01 0.02 0.02 0.02 0.02 0.03 0.05 0.06 0.04 0.01 0.00 0.00 0.00 0.00 0.00 0.00 0.01 0.02 0.04 0.06 0.07 0.07 0.06 0.04 0.03 0.06 0.16 0.41 0.72 0.95 0.87 0.67 0.46 0.32 0.26 0.24 0.24
0.03 0.03 0.03 0.02 0.02 0.02 0.03 0.03 0.05 0.06 0.03 0.00 0.00 0.00 0.00 0.00 0.00 0.01 0.01 0.02 0.05 0.07 0.08 0.07 0.05 0.04 0.03 0.06 0.18 0.42 0.70 0.91 0.89 0.71 0.51 0.38 0.30 0.28
0.04 0.05 0.05 0.04 0.04 0.03 0.04 0.03 0.04 0.05 0.04 0.01 0.00 0.00 0.00 0.00 0.00 0.01 0.01 0.02 0.03 0.06 0.09 0.08 0.07 0.05 0.04 0.03 0.07 0.21 0.43 0.66 0.88 0.89 0.74 0.55 0.41 0.33
0.05 0.05 0.05 0.04 0.04 0.03 0.04 0.03 0.03 0.03 0.04 0.02 0.00 0.00 0.00 0.00 0.00 0.01 0.01 0.02 0.03 0.05 0.08 0.09 0.09 0.08 0.05 0.04 0.04 0.09 0.25 0.44 0.64 0.81 0.83 0.70 0.51 0.39
0.05 0.06 0.05 0.05 0.04 0.03 0.03 0.03 0.02 0.02 0.03 0.03 0.01 0.01 0.01 0.01 0.00 0.01 0.01 0.02 0.03 0.04 0.07 0.09 0.10 0.10 0.08 0.06 0.05 0.06 0.11 0.26 0.42 0.59 0.72 0.71 0.62 0.49
0.04 0.05 0.06 0.08 0.07 0.06 0.06 0.04 0.03 0.03 0.03 0.02 0.02 0.01 0.01 0.01 0.01 0.01 0.01 0.02 0.03 0.04 0.06 0.09 0.10 0.12 0.12 0.09 0.05 0.05 0.07 0.14 0.27 0.42 0.58 0.66 0.62 0.53
0.03 0.04 0.06 0.06 0.09 0.09 0.11 0.09 0.05 0.03 0.03 0.03 0.02 0.02 0.03 0.02 0.02 0.02 0.02 0.02 0.03 0.06 0.07 0.10 0.11 0.11 0.12 0.12 0.09 0.07 0.06 0.08 0.15 0.27 0.42 0.57 0.63 0.54
0.03 0.03 0.03 0.03 0.03 0.03 0.04 0.04 0.04 0.04 0.05 0.03 0.03 0.03 0.03 0.03 0.01 0.01 0.02 0.03 0.04 0.07 0.09 0.12 0.14 0.16 0.16 0.13 0.10 0.08 0.07 0.08 0.09 0.15 0.27 0.40 0.54 0.57
0.02 0.02 0.02 0.03 0.04 0.02 0.01 0.01 0.01 0.02 0.03 0.03 0.03 0.03 0.03 0.03 0.02 0.01 0.01 0.03 0.04 0.08 0.11 0.13 0.17 0.19 0.21 0.18 0.13 0.08 0.07 0.07 0.08 0.11 0.17 0.27 0.39 0.51
0.01 0.01 0.02 0.02 0.05 0.04 0.00 0.00 0.01 0.01 0.02 0.03 0.04 0.04 0.04 0.03 0.02 0.02 0.01 0.02 0.03 0.07 0.10 0.13 0.17 0.20 0.23 0.22 0.16 0.09 0.07 0.06 0.06 0.09 0.14 0.20 0.30 0.40
0.01 0.01 0.01 0.02 0.03 0.03 0.00 0.00 0.01 0.01 0.01 0.02 0.02 0.02 0.02 0.02 0.02 0.01 0.01 0.01 0.04 0.07 0.10 0.12 0.17 0.19 0.22 0.22 0.17 0.11 0.07 0.06 0.05 0.07 0.11 0.16 0.24 0.33
0.00 0.00 0.01 0.02 0.02 0.02 0.01 0.01 0.02 0.01 0.01 0.01 0.01 0.00 0.00 0.00 0.01 0.01 0.02 0.02 0.04 0.06 0.10 0.11 0.15 0.18 0.21 0.23 0.17 0.11 0.07 0.06 0.06 0.07 0.09 0.13 0.19 0.26
0.00 0.00 0.00 0.01 0.01 0.01 0.01 0.02 0.03 0.02 0.01 0.01 0.01 0.00 0.00 0.00 0.00 0.01 0.02 0.02 0.03 0.05 0.08 0.09 0.14 0.16 0.18 0.22 0.18 0.11 0.08 0.06 0.05 0.06 0.09 0.12 0.16 0.19
0.00 0.00 0.00 0.00 0.00 0.00 0.01 0.01 0.01 0.00 0.00 0.00 0.00 0.00 0.00 0.01 0.01 0.01 0.01 0.01 0.02 0.04 0.07 0.07 0.10 0.13 0.14 0.16 0.16 0.13 0.09 0.07 0.05 0.04 0.06 0.11 0.16 0.19
0.00 0.00 0.00 0.00 0.00 0.00 0.00 0.00 0.00 0.00 0.00 0.01 0.01 0.01 0.01 0.01 0.01 0.01 0.01 0.01 0.01 0.02 0.05 0.06 0.07 0.10 0.12 0.12 0.13 0.12 0.10 0.10 0.07 0.05 0.05 0.08 0.11 0.14
0.00 0.00 0.00 0.00 0.00 0.00 0.00 0.00 0.00 0.01 0.01 0.01 0.01 0.01 0.00 0.00 0.01 0.01 0.01 0.01 0.01 0.02 0.04 0.05 0.07 0.08 0.10 0.11 0.10 0.11 0.09 0.09 0.09 0.05 0.04 0.06 0.07 0.08
0.01 0.00 0.00 0.00 0.00 0.00 0.00 0.00 0.00 0.00 0.01 0.01 0.01 0.01 0.01 0.01 0.01 0.01 0.01 0.01 0.02 0.02 0.04 0.06 0.08 0.09 0.12 0.15 0.14 0.12 0.09 0.07 0.07 0.05 0.03 0.04 0.07 0.08
0.01 0.00 0.00 0.00 0.00 0.00 0.00 0.00 0.00 0.00 0.01 0.01 0.01 0.01 0.01 0.01 0.01 0.01 0.01 0.01 0.02 0.03 0.04 0.06 0.08 0.09 0.13 0.20 0.22 0.15 0.09 0.07 0.06 0.06 0.04 0.03 0.06 0.09
0.00 0.00 0.00 0.00 0.00 0.00 0.00 0.00 0.00 0.00 0.00 0.00 0.01 0.01 0.01 0.01 0.01 0.01 0.01 0.01 0.02 0.03 0.05 0.07 0.08 0.10 0.12 0.18 0.25 0.21 0.12 0.07 0.07 0.08 0.07 0.04 0.04 0.07
0.01 0.01 0.01 0.01 0.00 0.00 0.00 0.00 0.00 0.00 0.00 0.00 0.00 0.00 0.01 0.01 0.01 0.01 0.01 0.02 0.02 0.03 0.04 0.06 0.09 0.11 0.12 0.12 0.16 0.23 0.21 0.11 0.07 0.08 0.10 0.08 0.05 0.07
0.01 0.01 0.02 0.01 0.01 0.00 0.00 0.00 0.00 0.00 0.00 0.00 0.00 0.00 0.00 0.01 0.01 0.01 0.01 0.02 0.02 0.03 0.04 0.06 0.09 0.11 0.14 0.13 0.13 0.19 0.24 0.23 0.13 0.07 0.08 0.09 0.08 0.07
0.01 0.02 0.02 0.02 0.02 0.01 0.00 0.00 0.00 0.00 0.00 0.00 0.00 0.00 0.00 0.00 0.01 0.01 0.01 0.02 0.02 0.03 0.05 0.07 0.09 0.12 0.16 0.17 0.17 0.18 0.21 0.28 0.30 0.21 0.11 0.07 0.05 0.05
0.02 0.02 0.02 0.02 0.02 0.01 0.01 0.00 0.00 0.00 0.00 0.00 0.00 0.00 0.00 0.00 0.00 0.01 0.01 0.01 0.02 0.03 0.04 0.07 0.09 0.11 0.16 0.20 0.21 0.20 0.18 0.21 0.26 0.28 0.29 0.20 0.10 0.06
MSLP
1019.27 1018.95 1018.67 1018.36 1017.95 1017.37 1016.60 1015.63 1014.51 1013.28 1012.03 1010.83 1009.75 1008.83 1008.09 1007.52 1007.09 1006.76 1006.48 1006.21 1005.91 1005.58 1005.22 1004.86 1004.52 1004.23 1004.03 1003.94 1003.99 1004.17 1004.49 1004.94 1005.50 1006.16 1006.91 1007.71 1008.57 1009.45
1018.68 1018.31 1018.00 1017.67 1017.27 1016.71 1015.98 1015.07 1014.01 1012.85 1011.66 1010.50 1009.45 1008.55 1007.81 1007.22 1006.77 1006.40 1006.09 1005.80 1005.49 1005.16 1004.81 1004.47 1004.15 1003.89 1003.70 1003.62 1003.66 1003.82 1004.11 1004.52 1005.05 1005.67 1006.39 1007.18 1008.02 1008.89
1018.31 1017.86 1017.47 1017.08 1016.63 1016.06 1015.35 1014.50 1013.51 1012.45 1011.35 1010.28 1009.30 1008.43 1007.70 1007.08 1006.58 1006.15 1005.76 1005.39 1005.02 1004.65 1004.29 1003.95 1003.65 1003.42 1003.27 1003.22 1003.28 1003.47 1003.76 1004.17 1004.68 1005.30 1006.00 1006.77 1007.60 1008.46
1018.24 1017.68 1017.18 1016.70 1016.18 1015.58 1014.87 1014.06 1013.15 1012.19 1011.21 1010.24 1009.34 1008.52 1007.80 1007.15 1006.58 1006.05 1005.55 1005.08 1004.61 1004.16 1003.75 1003.39 1003.09 1002.88 1002.77 1002.77 1002.88 1003.09 1003.42 1003.84 1004.37 1004.98 1005.68 1006.45 1007.28 1008.13
1018.44 1017.78 1017.18 1016.59 1015.99 1015.34 1014.62 1013.84 1013.01 1012.14 1011.27 1010.41 1009.60 1008.83 1008.12 1007.44 1006.79 1006.16 1005.54 1004.93 1004.34 1003.79 1003.30 1002.90 1002.58 1002.38 1002.29 1002.32 1002.47 1002.72 1003.07 1003.51 1004.05 1004.68 1005.39 1006.17 1007.00 1007.85
1018.85 1018.12 1017.43 1016.75 1016.07 1015.36 1014.63 1013.86 1013.08 1012.30 1011.52 1010.77 1010.03 1009.32 1008.62 1007.92 1007.21 1006.48 1005.74 1005.00 1004.29 1003.63 1003.04 1002.57 1002.21 1001.99 1001.89 1001.93 1002.08 1002.34 1002.70 1003.16 1003.70 1004.34 1005.05 1005.84 1006.69 1007.56
1019.35 1018.59 1017.84 1017.09 1016.35 1015.59 1014.83 1014.08 1013.33 1012.61 1011.91 1011.23 1010.57 1009.91 1009.23 1008.52 1007.77 1006.97 1006.13 1005.29 1004.46 1003.70 1003.02 1002.46 1002.04 1001.76 1001.63 1001.63 1001.75 1001.99 1002.32 1002.76 1003.29 1003.92 1004.63 1005.43 1006.29 1007.19
1019.80 1019.04 1018.28 1017.51 1016.73 1015.94 1015.16 1014.40 1013.68 1012.99 1012.34 1011.72 1011.12 1010.50 1009.85 1009.15 1008.38 1007.54 1006.66 1005.74 1004.84 1003.99 1003.23 1002.59 1002.09 1001.73 1001.52 1001.45 1001.51 1001.68 1001.96 1002.34 1002.83 1003.43 1004.13 1004.92 1005.80 1006.72
1020.07 1019.37 1018.63 1017.87 1017.09 1016.29 1015.51 1014.75 1014.03 1013.35 1012.73 1012.15 1011.58 1011.00 1010.39 1009.71 1008.96 1008.13 1007.23 1006.30 1005.36 1004.46 1003.64 1002.92 1002.34 1001.90 1001.60 1001.43 1001.39 1001.46 1001.65 1001.95 1002.37 1002.91 1003.58 1004.35 1005.23 1006.17
1020.10 1019.48 1018.81 1018.10 1017.35 1016.57 1015.79 1015.03 1014.31 1013.63 1013.02 1012.45 1011.91 1011.36 1010.78 1010.15 1009.43 1008.64 1007.77 1006.86 1005.93 1005.02 1004.17 1003.41 1002.76 1002.23 1001.84 1001.56 1001.42 1001.38 1001.47 1001.67 1002.00 1002.47 1003.07 1003.81 1004.66 1005.59
1019.90 1019.37 1018.80 1018.16 1017.47 1016.73 1015.98 1015.22 1014.50 1013.82 1013.20 1012.63 1012.09 1011.56 1011.02 1010.43 1009.77 1009.04 1008.23 1007.37 1006.48 1005.59 1004.75 1003.97 1003.28 1002.70 1002.22 1001.86 1001.62 1001.48 1001.47 1001.58 1001.82 1002.20 1002.73 1003.40 1004.20 1005.11
1019.53 1019.11 1018.63 1018.09 1017.47 1016.80 1016.08 1015.35 1014.63 1013.95 1013.31 1012.73 1012.19 1011.67 1011.14 1010.59 1009.99 1009.31 1008.58 1007.79 1006.96 1006.12 1005.31 1004.54 1003.85 1003.24 1002.72 1002.31 1002.00 1001.79 1001.70 1001.73 1001.89 1002.20 1002.64 1003.24 1003.98 1004.83
1019.10 1018.77 1018.39 1017.95 1017.42 1016.82 1016.16 1015.46 1014.75 1014.07 1013.42 1012.81 1012.26 1011.73 1011.22 1010.69 1010.13 1009.51 1008.84 1008.12 1007.36 1006.59 1005.83 1005.10 1004.43 1003.83 1003.31 1002.88 1002.55 1002.32 1002.19 1002.17 1002.28 1002.51 1002.89 1003.40 1004.05 1004.82
1018.71 1018.46 1018.16 1017.81 1017.37 1016.85 1016.25 1015.60 1014.92 1014.24 1013.58 1012.96 1012.39 1011.85 1011.33 1010.81 1010.27 1009.69 1009.07 1008.40 1007.71 1007.00 1006.29 1005.62 1004.99 1004.44 1003.95 1003.56 1003.25 1003.03 1002.91 1002.88 1002.96 1003.15 1003.46 1003.89 1004.45 1005.13
1018.45 1018.24 1018.01 1017.73 1017.37 1016.92 1016.39 1015.79 1015.15 1014.49 1013.84 1013.22 1012.63 1012.07 1011.53 1011.01 1010.47 1009.91 1009.31 1008.68 1008.03 1007.37 1006.72 1006.11 1005.55 1005.05 1004.63 1004.30 1004.05 1003.89 1003.80 1003.80 1003.89 1004.06 1004.32 1004.69 1005.17 1005.75
1018.34 1018.16 1017.96 1017.73 1017.43 1017.05 1016.59 1016.05 1015.46 1014.83 1014.21 1013.59 1013.00 1012.43 1011.88 1011.33 1010.78 1010.21 1009.62 1009.01 1008.38 1007.75 1007.15 1006.59 1006.09 1005.66 1005.32 1005.07 1004.90 1004.81 1004.79 1004.85 1004.96 1005.14 1005.39 1005.71 1006.12 1006.63
1018.38 1018.18 1018.00 1017.79 1017.53 1017.20 1016.80 1016.33 1015.80 1015.23 1014.64 1014.06 1013.48 1012.91 1012.35 1011.79 1011.22 1010.63 1010.03 1009.41 1008.79 1008.18 1007.60 1007.08 1006.63 1006.27 1006.00 1005.83 1005.74 1005.74 1005.80 1005.92 1006.08 1006.30 1006.55 1006.86 1007.24 1007.69
1018.50 1018.28 1018.07 1017.87 1017.63 1017.33 1016.99 1016.58 1016.12 1015.62 1015.10 1014.56 1014.02 1013.47 1012.92 1012.35 1011.77 1011.16 1010.54 1009.90 1009.27 1008.66 1008.09 1007.59 1007.18 1006.86 1006.65 1006.55 1006.54 1006.61 1006.75 1006.94 1007.17 1007.43 1007.72 1008.05 1008.43 1008.86
1018.66 1018.38 1018.14 1017.91 1017.66 1017.39 1017.09 1016.75 1016.36 1015.95 1015.50 1015.04 1014.55 1014.05 1013.52 1012.96 1012.37 1011.76 1011.11 1010.46 1009.81 1009.19 1008.63 1008.13 1007.74 1007.45 1007.28 1007.23 1007.28 1007.41 1007.62 1007.88 1008.17 1008.49 1008.84 1009.21 1009.62 1010.08
1018.80 1018.46 1018.16 1017.88 1017.62 1017.36 1017.09 1016.81 1016.50 1016.17 1015.82 1015.44 1015.03 1014.59 1014.10 1013.57 1012.99 1012.37 1011.72 1011.05 1010.39 1009.76 1009.19 1008.70 1008.32 1008.05 1007.90 1007.88 1007.97 1008.15 1008.41 1008.72 1009.08 1009.47 1009.88 1010.32 1010.79 1011.30
1018.91 1018.49 1018.12 1017.79 1017.50 1017.24 1017.00 1016.76 1016.53 1016.29 1016.03 1015.75 1015.42 1015.05 1014.62 1014.12 1013.57 1012.96 1012.32 1011.65 1010.99 1010.35 1009.78 1009.30 1008.92 1008.66 1008.53 1008.53 1008.64 1008.86 1009.16 1009.52 1009.93 1010.39 1010.87 1011.38 1011.93 1012.51
1018.97 1018.48 1018.04 1017.66 1017.32 1017.05 1016.83 1016.64 1016.47 1016.32 1016.15 1015.96 1015.72 1015.43 1015.06 1014.61 1014.10 1013.51 1012.89 1012.23 1011.58 1010.95 1010.39 1009.92 1009.56 1009.32 1009.20 1009.22 1009.35 1009.59 1009.92 1010.32 1010.78 1011.29 1011.83 1012.42 1013.04 1013.71
1019.00 1018.44 1017.93 1017.49 1017.12 1016.83 1016.62 1016.47 1016.36 1016.28 1016.20 1016.10 1015.95 1015.73 1015.43 1015.04 1014.57 1014.02 1013.42 1012.79 1012.16 1011.57 1011.03 1010.59 1010.25 1010.03 1009.95 1009.98 1010.14 1010.39 1010.75 1011.17 1011.67 1012.21 1012.81 1013.46 1014.14 1014.87
Thickness
5116 5121 5128 5140 5154 5169 5184 5198 5213 5232 5252 5271 5288 5305 5321 5341 5364 5389 5416 5444 5470 5495 5520 5542 5563 5582 5600 5618 5633 5644 5654 5660 5664 5668 5670 5671 5673 5674
5120 5123 5130 5141 5153 5167 5181 5195 5209 5222 5240 5258 5275 5293 5311 5331 5353 5376 5403 5429 5456 5481 5505 5529 5549 5568 5586 5605 5621 5635 5644 5651 5656 5660 5664 5665 5667 5669
5124 5128 5135 5144 5155 5167 5180 5193 5206 5218 5232 5249 5266 5285 5303 5322 5343 5366 5391 5418 5445 5469 5493 5516 5538 5555 5573 5592 5609 5624 5635 5642 5648 5654 5656 5658 5661 5663
5129 5133 5139 5148 5158 5169 5180 5192 5203 5215 5227 5241 5258 5276 5295 5313 5334 5356 5381 5407 5433 5458 5482 5505 5525 5544 5562 5580 5597 5613 5625 5634 5641 5646 5650 5653 5654 5656
5133 5136 5142 5150 5160 5170 5180 5190 5201 5213 5224 5236 5252 5269 5287 5305 5325 5347 5372 5396 5422 5448 5472 5494 5514 5533 5552 5569 5587 5602 5615 5627 5636 5639 5642 5645 5647 5650
5135 5139 5144 5152 5160 5170 5180 5188 5199 5210 5222 5234 5248 5263 5279 5297 5316 5336 5361 5386 5411 5437 5462 5485 5505 5524 5543 5560 5579 5593 5606 5615 5624 5632 5635 5639 5641 5643
5137 5141 5146 5152 5159 5167 5176 5185 5195 5206 5218 5229 5242 5256 5271 5287 5304 5323 5346 5373 5401 5424 5450 5475 5499 5519 5535 5551 5566 5581 5595 5607 5616 5624 5630 5632 5635 5638
5137 5141 5147 5153 5159 5166 5173 5181 5189 5198 5209 5220 5233 5245 5260 5276 5294 5313 5334 5358 5389 5413 5435 5464 5488 5508 5526 5542 5558 5573 5587 5599 5609 5617 5623 5626 5629 5632
5138 5140 5146 5152 5158 5165 5171 5178 5186 5194 5202 5212 5224 5236 5251 5267 5285 5306 5325 5345 5371 5397 5420 5453 5478 5498 5517 5533 5547 5562 5578 5591 5601 5610 5616 5620 5624 5627
5140 5140 5145 5151 5157 5164 5169 5176 5185 5192 5199 5208 5219 5231 5244 5260 5277 5296 5316 5338 5364 5389 5409 5439 5466 5489 5507 5523 5537 5553 5568 5581 5592 5602 5609 5613 5618 5621
5144 5143 5145 5150 5156 5162 5168 5175 5184 5192 5199 5208 5218 5229 5242 5257 5273 5291 5311 5332 5360 5383 5401 5427 5453 5476 5495 5511 5526 5542 5556 5569 5582 5592 5600 5606 5611 5614
5149 5147 5148 5151 5155 5160 5166 5173 5181 5190 5198 5208 5219 5229 5241 5254 5270 5284 5301 5321 5344 5370 5389 5411 5437 5461 5483 5498 5513 5529 5543 5557 5571 5582 5591 5597 5602 5606
5154 5151 5150 5152 5154 5159 5164 5170 5177 5186 5196 5207 5218 5230 5242 5254 5268 5282 5297 5313 5332 5355 5375 5393 5418 5444 5468 5486 5500 5515 5532 5546 5560 5572 5580 5588 5594 5600
5158 5154 5153 5153 5154 5158 5163 5169 5176 5185 5195 5205 5216 5228 5239 5252 5266 5281 5297 5311 5326 5344 5363 5380 5403 5428 5451 5473 5489 5503 5518 5533 5548 5560 5569 5576 5583 5590
5163 5158 5155 5154 5155 5158 5162 5168 5175 5183 5191 5201 5212 5223 5235 5249 5264 5280 5297 5313 5328 5343 5359 5376 5394 5413 5434 5457 5476 5491 5504 5516 5532 5545 5554 5563 5571 5578
5169 5163 5159 5157 5157 5159 5163 5168 5173 5180 5187 5197 5207 5219 5233 5247 5263 5278 5294 5310 5328 5343 5357 5372 5388 5404 5425 5444 5463 5477 5491 5503 5515 5528 5537 5544 5553 5562
5173 5169 5166 5162 5161 5162 5164 5167 5172 5178 5186 5194 5204 5216 5229 5243 5258 5273 5288 5305 5321 5336 5351 5366 5381 5396 5412 5431 5448 5462 5476 5488 5500 5511 5521 5526 5531 5541
5178 5174 5170 5166 5164 5163 5164 5167 5171 5176 5182 5191 5201 5212 5224 5238 5252 5267 5282 5297 5312 5327 5342 5357 5373 5390 5405 5419 5429 5446 5461 5472 5482 5494 5507 5513 5512 5519
5182 5177 5173 5169 5166 5165 5165 5167 5170 5175 5180 5188 5197 5208 5219 5232 5246 5260 5275 5290 5305 5319 5334 5348 5364 5382 5400 5410 5416 5430 5446 5457 5467 5476 5486 5495 5497 5500
5186 5181 5176 5173 5170 5167 5167 5168 5170 5174 5180 5186 5195 5204 5215 5227 5240 5253 5267 5280 5296 5311 5326 5340 5353 5367 5384 5396 5404 5413 5427 5442 5454 5461 5466 5472 5477 5481
5189 5185 5181 5177 5174 5171 5169 5169 5170 5174 5178 5184 5192 5200 5211 5222 5234 5246 5259 5273 5287 5302 5316 5329 5341 5354 5368 5381 5392 5399 5409 5423 5436 5447 5454 5460 5463 5465
5191 5188 5185 5181 5177 5175 5172 5171 5172 5174 5178 5183 5190 5198 5207 5217 5228 5239 5252 5265 5278 5291 5305 5319 5332 5345 5358 5372 5381 5387 5394 5403 5414 5425 5437 5449 5458 5459
5193 5190 5188 5185 5181 5178 5175 5173 5173 5175 5177 5181 5187 5194 5203 5212 5223 5233 5245 5257 5269 5282 5296 5309 5322 5334 5345 5356 5366 5374 5381 5389 5398 5406 5413 5425 5438 5442